EW0603 Weather Reports


Display with metric or nautical units.
time (UTC)temp
F
wind
direction
speed
MPH
gust
MPH
rain 1hr
in
rain 24hr
in
rain mn
in
humidity
%
barometer
mb
20260831163058 82 303 0.0 2.0 0.00 0.03 0.00 74 1014.4
20260831162954 81 304 0.0 2.0 0.00 0.04 0.00 73 1014.4
20260831162851 81 267 0.0 0.0 0.00 0.04 0.00 74 1014.5
20260831162746 81 249 0.0 0.0 0.00 0.04 0.00 75 1014.5
20260831162642 81 249 0.0 0.0 0.00 0.04 0.00 75 1014.5
20260831162535 81 249 0.0 0.0 0.00 0.04 0.00 76 1014.5
20260831161954 80 296 0.0 4.0 0.00 0.04 0.00 74 1014.5
20260831161852 80 248 0.0 0.0 0.00 0.04 0.00 75 1014.6
20260831161749 80 247 0.0 4.0 0.00 0.04 0.00 75 1014.6
20260831161648 80 250 0.0 4.0 0.00 0.04 0.00 75 1014.6
20260831161323 79 298 0.0 2.0 0.00 0.04 0.00 76 1014.6
20260831161218 79 298 0.0 2.0 0.00 0.04 0.00 75 1014.7
20260831161111 79 302 0.0 1.0 0.00 0.04 0.00 77 1014.7
20260831161007 79 279 0.0 0.0 0.00 0.04 0.00 77 1014.7
20260831160859 79 278 0.0 0.0 0.00 0.04 0.00 77 1014.7
20260831160752 79 278 0.0 0.0 0.00 0.04 0.00 77 1014.7
20260831160649 79 278 0.0 0.0 0.00 0.04 0.00 77 1014.7
20260831160541 79 278 0.0 0.0 0.00 0.04 0.00 77 1014.7
20260831160214 79 278 0.0 0.0 0.00 0.04 0.00 77 1014.6
20260831160107 79 278 0.0 0.0 0.00 0.04 0.00 76 1014.6
20260831160004 79 223 0.0 0.0 0.00 0.04 0.00 76 1014.5
20260831155858 79 213 0.0 0.0 0.00 0.05 0.00 76 1014.6
20260831155753 79 213 0.0 0.0 0.00 0.05 0.00 75 1014.5
20260831155649 79 214 0.0 0.0 0.00 0.05 0.00 76 1014.5
20260831155545 79 206 0.0 0.0 0.00 0.05 0.00 76 1014.5
20260831155440 79 194 0.0 0.0 0.00 0.05 0.00 77 1014.4
20260831155335 79 192 0.0 0.0 0.00 0.05 0.00 79 1014.4
20260831155228 79 192 0.0 0.0 0.00 0.05 0.00 78 1014.4
20260831155124 78 193 0.0 0.0 0.00 0.05 0.00 78 1014.4
20260831155018 78 286 0.0 0.0 0.00 0.05 0.00 78 1014.4
20260831154911 78 286 0.0 0.0 0.00 0.05 0.00 78 1014.4
20260831154805 78 286 0.0 0.0 0.00 0.05 0.00 79 1014.5
20260831154659 78 286 0.0 0.0 0.00 0.05 0.00 79 1014.5
20260831154115 78 286 0.0 0.0 0.00 0.05 0.00 79 1014.5
20260831154009 78 286 0.0 0.0 0.00 0.05 0.00 79 1014.5
20260831153903 78 286 0.0 0.0 0.00 0.05 0.00 80 1014.4
20260831153758 78 286 0.0 0.0 0.00 0.06 0.00 80 1014.4
20260831153652 78 286 0.0 0.0 0.00 0.06 0.00 80 1014.4
20260831153549 78 286 0.0 0.0 0.00 0.06 0.00 79 1014.4
20260831153447 78 286 0.0 0.0 0.00 0.06 0.00 80 1014.4
20260831153340 78 288 0.0 0.0 0.00 0.06 0.00 80 1014.4
20260831153238 78 288 0.0 0.0 0.00 0.06 0.00 80 1014.5
20260831153130 78 288 0.0 0.0 0.00 0.07 0.00 80 1014.5
20260831153024 77 288 0.0 0.0 0.00 0.07 0.00 79 1014.5
20260831152921 78 288 0.0 0.0 0.00 0.07 0.00 79 1014.5
20260831152556 77 255 0.0 0.0 0.00 0.07 0.00 78 1014.5
20260831152235 77 255 0.0 0.0 0.00 0.08 0.00 79 1014.5
20260831152133 77 255 0.0 0.0 0.00 0.09 0.00 79 1014.5
20260831152029 77 255 0.0 0.0 0.00 0.09 0.00 79 1014.4
20260831151927 77 255 0.0 0.0 0.00 0.09 0.00 79 1014.4
20260831151824 77 255 0.0 0.0 0.00 0.09 0.00 80 1014.4
20260831151717 77 256 0.0 0.0 0.00 0.10 0.00 80 1014.4
20260831151614 77 256 0.0 0.0 0.00 0.10 0.00 80 1014.4
20260831151250 77 256 0.0 0.0 0.00 0.10 0.00 80 1014.4
20260831151144 77 259 0.0 0.0 0.00 0.10 0.00 79 1014.4
20260831151042 77 259 0.0 0.0 0.00 0.10 0.00 79 1014.4
20260831150938 77 259 0.0 0.0 0.00 0.10 0.00 79 1014.5
20260831150834 77 259 0.0 0.0 0.00 0.10 0.00 79 1014.5
20260831150729 77 259 0.0 0.0 0.00 0.11 0.00 79 1014.6
20260831150405 77 258 0.0 0.0 0.00 0.11 0.00 79 1014.5
20260831150039 77 258 0.0 0.0 0.00 0.11 0.00 79 1014.6
20260831145937 77 258 0.0 0.0 0.00 0.11 0.00 80 1014.6
20260831145833 77 262 0.0 0.0 0.00 0.11 0.00 80 1014.6
20260831145506 77 293 0.0 3.0 0.00 0.12 0.00 80 1014.7
20260831145403 77 294 0.0 3.0 0.00 0.12 0.00 81 1014.7
20260831145300 77 300 0.0 0.0 0.00 0.12 0.00 82 1014.7
20260831145158 76 268 0.0 0.0 0.00 0.12 0.00 82 1014.6
20260831145054 76 234 0.0 0.0 0.00 0.13 0.00 82 1014.6
20260831144952 76 234 0.0 0.0 0.00 0.13 0.00 82 1014.6
20260831144850 76 234 0.0 0.0 0.00 0.13 0.00 82 1014.6
20260831144745 76 234 0.0 0.0 0.00 0.13 0.00 81 1014.5
20260831144642 76 234 0.0 0.0 0.00 0.13 0.00 81 1014.5
20260831144540 76 234 0.0 0.0 0.00 0.13 0.00 81 1014.5
20260831144435 76 234 0.0 0.0 0.00 0.14 0.00 81 1014.5
20260831144328 76 234 0.0 0.0 0.00 0.14 0.00 81 1014.5
20260831144009 76 234 0.0 0.0 0.00 0.15 0.00 82 1014.5
20260831143905 76 234 0.0 0.0 0.00 0.15 0.00 84 1014.5
20260831143802 76 234 0.0 0.0 0.00 0.15 0.00 84 1014.4
20260831143658 76 234 0.0 0.0 0.00 0.15 0.00 84 1014.4
20260831143551 75 234 0.0 0.0 0.00 0.15 0.00 83 1014.4
20260831143225 75 234 0.0 0.0 0.00 0.16 0.00 84 1014.3
20260831143120 75 234 0.0 0.0 0.00 0.16 0.00 84 1014.3
20260831142538 75 234 0.0 4.0 0.00 0.16 0.00 85 1014.2
20260831142431 75 166 0.0 0.0 0.00 0.16 0.00 85 1014.2
20260831142324 75 166 0.0 0.0 0.00 0.17 0.00 85 1014.2
20260831142218 75 166 0.0 0.0 0.00 0.17 0.00 85 1014.2
20260831142115 75 166 0.0 0.0 0.00 0.17 0.00 85 1014.1
20260831142012 75 166 0.0 0.0 0.00 0.17 0.00 85 1014.1
20260831141909 75 166 0.0 0.0 0.00 0.17 0.00 85 1014.1
20260831141802 74 166 0.0 0.0 0.00 0.17 0.00 85 1014.1
20260831141433 74 190 0.0 0.0 0.00 0.17 0.00 85 1014.1
20260831141325 74 190 0.0 0.0 0.00 0.18 0.00 84 1014.1
20260831141221 74 190 0.0 0.0 0.00 0.18 0.00 85 1014.1
20260831141115 74 191 0.0 0.0 0.00 0.18 0.00 85 1014.1
20260831141007 74 191 0.0 0.0 0.00 0.18 0.00 85 1014.2
20260831140905 74 190 0.0 0.0 0.00 0.18 0.00 84 1014.2
20260831140800 74 190 0.0 0.0 0.00 0.19 0.00 84 1014.2
20260831140655 74 190 0.0 0.0 0.00 0.19 0.00 84 1014.2
20260831140551 74 190 0.0 0.0 0.00 0.19 0.00 84 1014.2
20260831140443 74 190 0.0 0.0 0.00 0.19 0.00 84 1014.2
20260831140116 74 191 0.0 0.0 0.00 0.20 0.00 84 1014.3
20260831140012 74 191 0.0 0.0 0.00 0.20 0.00 84 1014.3
20260831135910 74 191 0.0 0.0 0.00 0.20 0.00 84 1014.4
20260831135805 74 191 0.0 0.0 0.00 0.21 0.00 84 1014.4
20260831135700 74 191 0.0 0.0 0.00 0.21 0.00 84 1014.4
20260831135556 74 191 0.0 0.0 0.00 0.21 0.00 84 1014.4
20260831135453 74 191 0.0 0.0 0.00 0.21 0.00 84 1014.3
20260831135349 74 191 0.0 0.0 0.00 0.21 0.00 84 1014.3
20260831135242 74 191 0.0 0.0 0.00 0.21 0.00 84 1014.2
20260831135139 74 191 0.0 0.0 0.00 0.22 0.00 84 1014.2
20260831134816 74 190 0.0 0.0 0.00 0.23 0.00 84 1014.2
20260831134714 74 190 0.0 0.0 0.00 0.23 0.00 84 1014.2
20260831134607 74 190 0.0 0.0 0.00 0.23 0.00 84 1014.2
20260831134503 74 190 0.0 0.0 0.00 0.23 0.00 84 1014.2
20260831134356 74 190 0.0 0.0 0.00 0.23 0.00 84 1014.2
20260831134252 74 190 0.0 0.0 0.00 0.23 0.00 84 1014.2
20260831133925 74 191 0.0 0.0 0.00 0.24 0.00 84 1014.2
20260831133819 74 191 0.0 0.0 0.00 0.24 0.00 84 1014.2
20260831133715 74 191 0.0 0.0 0.00 0.25 0.00 84 1014.2
20260831133611 74 191 0.0 0.0 0.00 0.25 0.00 84 1014.2
20260831133245 74 191 0.0 0.0 0.00 0.25 0.00 84 1014.2
20260831133139 74 191 0.0 0.0 0.00 0.25 0.00 84 1014.2
20260831133037 74 191 0.0 0.0 0.00 0.25 0.00 84 1014.3
20260831132710 74 191 0.0 0.0 0.00 0.26 0.00 84 1014.2
20260831132603 74 191 0.0 0.0 0.00 0.26 0.00 84 1014.2
20260831132238 74 191 0.0 0.0 0.00 0.27 0.00 83 1014.1
20260831132136 74 191 0.0 0.0 0.00 0.27 0.00 84 1014.1
20260831132033 74 191 0.0 0.0 0.00 0.27 0.00 84 1014.1
20260831131930 74 191 0.0 0.0 0.00 0.27 0.00 84 1014.1
20260831131827 74 191 0.0 0.0 0.00 0.27 0.00 83 1014.1
20260831131719 74 191 0.0 0.0 0.00 0.27 0.00 83 1014.0
20260831131612 74 191 0.0 0.0 0.00 0.27 0.00 83 1014.0
20260831131509 74 191 0.0 0.0 0.00 0.27 0.00 83 1014.0
20260831131405 74 191 0.0 0.0 0.00 0.27 0.00 83 1013.9
20260831131046 74 191 0.0 0.0 0.00 0.27 0.00 83 1013.9
20260831130942 74 191 0.0 0.0 0.00 0.27 0.00 83 1013.9
20260831130836 74 191 0.0 0.0 0.00 0.28 0.00 82 1013.9
20260831130730 74 191 0.0 0.0 0.00 0.28 0.00 82 1013.9
20260831130627 74 191 0.0 0.0 0.00 0.28 0.00 83 1013.8
20260831130522 74 191 0.0 0.0 0.00 0.28 0.00 82 1013.9
20260831130415 74 225 0.0 0.0 0.00 0.29 0.00 82 1013.8
20260831130308 74 225 0.0 0.0 0.00 0.29 0.00 82 1013.8
20260831125941 74 219 0.0 0.0 0.00 0.29 0.00 82 1013.8
20260831125615 75 218 0.0 0.0 0.00 0.30 0.00 82 1013.7
20260831125509 74 218 0.0 0.0 0.00 0.30 0.00 82 1013.7
20260831125404 74 218 0.0 0.0 0.00 0.30 0.00 82 1013.6
20260831125037 74 218 0.0 0.0 0.00 0.30 0.00 82 1013.6
20260831124933 74 218 0.0 0.0 0.00 0.31 0.00 82 1013.6
20260831124610 74 220 0.0 0.0 0.00 0.31 0.00 82 1013.6
20260831124503 74 197 0.0 0.0 0.00 0.31 0.00 82 1013.7
20260831124355 74 197 0.0 0.0 0.00 0.31 0.00 82 1013.7
20260831124251 74 197 0.0 0.0 0.00 0.31 0.00 82 1013.7
20260831124145 74 197 0.0 0.0 0.00 0.31 0.00 82 1013.6
20260831124044 74 197 0.0 0.0 0.00 0.31 0.00 82 1013.6
20260831123718 74 197 0.0 0.0 0.00 0.31 0.00 82 1013.6
20260831123612 74 197 0.0 0.0 0.00 0.31 0.00 82 1013.6
20260831123507 74 198 0.0 2.0 0.00 0.32 0.00 82 1013.6
20260831123145 74 238 0.0 3.0 0.00 0.32 0.00 82 1013.7
20260831123038 74 194 0.0 0.0 0.00 0.32 0.00 82 1013.6
20260831122931 74 178 0.0 1.0 0.00 0.32 0.00 82 1013.6
20260831122828 74 185 0.0 1.0 0.00 0.32 0.00 82 1013.6
20260831122500 74 175 0.0 0.0 0.00 0.33 0.00 82 1013.5
20260831122134 74 175 0.0 3.0 0.00 0.33 0.00 82 1013.5
20260831121329 74 173 0.0 0.0 0.00 0.33 0.00 83 1013.5
20260831121222 74 178 0.0 0.0 0.00 0.33 0.00 83 1013.4
20260831121116 74 177 0.0 0.0 0.00 0.33 0.00 83 1013.5
20260831120750 74 162 0.0 0.0 0.00 0.33 0.00 83 1013.5
20260831120647 74 162 0.0 0.0 0.00 0.33 0.00 83 1013.5
20260831120541 74 161 0.0 0.0 0.00 0.33 0.00 83 1013.5
20260831120438 74 159 0.0 0.0 0.00 0.33 0.00 83 1013.5
20260831120336 74 159 0.0 0.0 0.00 0.33 0.00 83 1013.5
20260831120005 74 144 0.0 0.0 0.00 0.33 0.00 83 1013.5
20260831115901 73 144 0.0 0.0 0.00 0.33 0.00 83 1013.5
20260831115755 73 144 0.0 0.0 0.00 0.33 0.00 83 1013.5
20260831115649 73 144 0.0 0.0 0.00 0.33 0.00 83 1013.5
20260831115543 73 144 0.0 0.0 0.00 0.33 0.00 83 1013.5
20260831115441 73 144 0.0 0.0 0.00 0.33 0.00 83 1013.5
20260831115335 73 144 0.0 1.0 0.00 0.33 0.00 83 1013.5
20260831115228 73 160 0.0 0.0 0.00 0.33 0.00 83 1013.5
20260831115123 73 187 0.0 0.0 0.00 0.33 0.00 83 1013.5
20260831115018 73 187 0.0 0.0 0.00 0.33 0.00 83 1013.5
20260831114912 73 187 0.0 0.0 0.00 0.33 0.00 83 1013.5
20260831114805 73 187 0.0 0.0 0.00 0.33 0.00 83 1013.6
20260831114658 73 187 0.0 0.0 0.00 0.33 0.00 83 1013.5
20260831114557 73 190 0.0 0.0 0.00 0.33 0.00 83 1013.6
20260831114453 73 189 0.0 0.0 0.00 0.33 0.00 83 1013.6
20260831114347 73 189 0.0 1.0 0.00 0.33 0.00 83 1013.5
20260831114026 73 196 0.0 0.0 0.00 0.33 0.00 83 1013.5
20260831113919 73 196 0.0 0.0 0.00 0.33 0.00 83 1013.6
20260831113811 73 196 0.0 0.0 0.00 0.33 0.00 83 1013.5
20260831113709 73 196 0.0 0.0 0.00 0.33 0.00 83 1013.6
20260831113605 73 196 0.0 0.0 0.00 0.33 0.00 83 1013.6
20260831113500 73 196 0.0 0.0 0.00 0.33 0.00 83 1013.6
20260831113352 73 196 0.0 1.0 0.00 0.33 0.00 83 1013.6
20260831113029 73 196 0.0 1.0 0.00 0.33 0.00 84 1013.6
20260831112921 73 194 0.0 1.0 0.00 0.33 0.00 84 1013.5
20260831112817 73 184 0.0 0.0 0.00 0.33 0.00 84 1013.5
20260831112711 73 184 0.0 0.0 0.00 0.33 0.00 84 1013.5
20260831112130 73 184 0.0 0.0 0.00 0.33 0.00 84 1013.5
20260831111551 73 184 0.0 0.0 0.00 0.33 0.00 84 1013.5
20260831111446 73 184 0.0 0.0 0.00 0.33 0.00 84 1013.5
20260831111339 73 184 0.0 0.0 0.00 0.33 0.00 84 1013.5
20260831111234 73 184 0.0 0.0 0.00 0.33 0.00 84 1013.5
20260831111127 73 184 0.0 0.0 0.00 0.33 0.00 84 1013.5
20260831111021 72 173 0.0 0.0 0.00 0.33 0.00 84 1013.5
20260831110915 72 173 0.0 0.0 0.00 0.33 0.00 84 1013.5
20260831110809 72 173 0.0 0.0 0.00 0.33 0.00 84 1013.5
20260831110702 72 173 0.0 0.0 0.00 0.33 0.00 84 1013.5
20260831110600 72 173 0.0 0.0 0.00 0.33 0.00 84 1013.5
20260831110452 72 173 0.0 0.0 0.00 0.33 0.00 84 1013.5
20260831110345 72 173 0.0 0.0 0.00 0.33 0.00 84 1013.5
20260831110024 72 173 0.0 0.0 0.00 0.33 0.00 84 1013.5
20260831105920 72 173 0.0 0.0 0.00 0.33 0.00 84 1013.4
20260831105814 72 173 0.0 0.0 0.00 0.33 0.00 84 1013.5
20260831105712 72 173 0.0 0.0 0.00 0.33 0.00 84 1013.4
20260831105609 72 173 0.0 0.0 0.00 0.33 0.00 84 1013.5
20260831105502 72 173 0.0 0.0 0.00 0.33 0.00 84 1013.5
20260831105358 72 173 0.0 0.0 0.00 0.33 0.00 84 1013.5
20260831105255 72 173 0.0 0.0 0.00 0.33 0.00 84 1013.5
20260831105149 72 173 0.0 0.0 0.00 0.33 0.00 84 1013.5
20260831105046 72 173 0.0 0.0 0.00 0.33 0.00 84 1013.5
20260831104941 72 173 0.0 0.0 0.00 0.33 0.00 84 1013.5
20260831104838 72 173 0.0 0.0 0.00 0.33 0.00 84 1013.4
20260831104733 72 173 0.0 0.0 0.00 0.33 0.00 84 1013.4
20260831104629 72 173 0.0 0.0 0.00 0.33 0.00 84 1013.4
20260831104523 72 173 0.0 0.0 0.00 0.33 0.00 84 1013.4
20260831104421 72 173 0.0 0.0 0.00 0.33 0.00 84 1013.3
20260831104318 72 173 0.0 0.0 0.00 0.33 0.00 84 1013.3
20260831104210 72 173 0.0 0.0 0.00 0.33 0.00 84 1013.4
20260831104103 72 173 0.0 0.0 0.00 0.33 0.00 84 1013.4
20260831104000 72 173 0.0 0.0 0.00 0.33 0.00 84 1013.3
20260831103856 72 173 0.0 0.0 0.00 0.33 0.00 84 1013.3
20260831103749 72 173 0.0 0.0 0.00 0.33 0.00 84 1013.4
20260831103645 72 173 0.0 0.0 0.00 0.33 0.00 84 1013.4
20260831103326 72 173 0.0 0.0 0.00 0.33 0.00 84 1013.4
20260831103221 72 173 0.0 0.0 0.00 0.33 0.00 84 1013.4
20260831103116 72 173 0.0 0.0 0.00 0.33 0.00 84 1013.4
20260831102751 72 173 0.0 0.0 0.00 0.33 0.00 84 1013.5
20260831102648 72 173 0.0 0.0 0.00 0.33 0.00 84 1013.5
20260831102545 72 173 0.0 0.0 0.00 0.33 0.00 84 1013.5
20260831101735 72 173 0.0 0.0 0.00 0.33 0.00 84 1013.5
20260831101631 72 173 0.0 0.0 0.00 0.33 0.00 84 1013.5
20260831101528 72 173 0.0 0.0 0.00 0.33 0.00 84 1013.5
20260831101426 72 173 0.0 0.0 0.00 0.33 0.00 84 1013.5
20260831101320 72 173 0.0 0.0 0.00 0.33 0.00 84 1013.5
20260831101213 72 173 0.0 0.0 0.00 0.33 0.00 85 1013.5
20260831101111 72 173 0.0 0.0 0.00 0.33 0.00 84 1013.5
20260831101008 72 173 0.0 0.0 0.00 0.33 0.00 85 1013.5
20260831100901 72 173 0.0 0.0 0.00 0.33 0.00 85 1013.6
20260831100758 72 173 0.0 0.0 0.00 0.33 0.00 85 1013.6
20260831100653 72 173 0.0 0.0 0.00 0.33 0.00 85 1013.6
20260831100548 72 173 0.0 0.0 0.00 0.33 0.00 85 1013.6
20260831100446 72 173 0.0 0.0 0.00 0.33 0.00 85 1013.5
20260831100343 72 173 0.0 0.0 0.00 0.33 0.00 85 1013.6
20260831100022 72 171 0.0 0.0 0.00 0.33 0.00 85 1013.5
20260831095657 72 171 0.0 0.0 0.00 0.33 0.00 85 1013.5
20260831095550 72 171 0.0 0.0 0.00 0.33 0.00 85 1013.5
20260831095448 72 171 0.0 0.0 0.00 0.33 0.00 85 1013.5
20260831095343 72 171 0.0 0.0 0.00 0.33 0.00 85 1013.5
20260831095240 72 171 0.0 0.0 0.00 0.33 0.00 85 1013.5
20260831095137 72 171 0.0 0.0 0.00 0.33 0.00 85 1013.5
20260831095032 72 171 0.0 0.0 0.00 0.33 0.00 85 1013.5
20260831094704 72 171 0.0 1.0 0.00 0.33 0.00 85 1013.6
20260831094559 72 171 0.0 1.0 0.00 0.33 0.00 85 1013.5
20260831094234 72 192 0.0 0.0 0.00 0.33 0.00 85 1013.5
20260831094127 72 192 0.0 0.0 0.00 0.33 0.00 85 1013.5
20260831093803 72 184 0.0 1.0 0.00 0.33 0.00 85 1013.5
20260831093700 72 167 0.0 0.0 0.00 0.33 0.00 85 1013.5
20260831093554 72 167 0.0 0.0 0.00 0.33 0.00 85 1013.5
20260831093232 72 167 0.0 0.0 0.00 0.33 0.00 85 1013.5
20260831093126 72 167 0.0 0.0 0.00 0.33 0.00 85 1013.5
20260831093024 72 167 0.0 0.0 0.00 0.33 0.00 85 1013.5
20260831092657 72 167 0.0 0.0 0.00 0.33 0.00 85 1013.4
20260831092551 73 167 0.0 0.0 0.00 0.33 0.00 85 1013.4
20260831092010 73 168 0.0 0.0 0.00 0.33 0.00 84 1013.4
20260831091908 73 168 0.0 0.0 0.00 0.33 0.00 84 1013.4
20260831091803 73 167 0.0 0.0 0.00 0.33 0.00 84 1013.4
20260831091657 73 167 0.0 0.0 0.00 0.33 0.00 84 1013.4
20260831091552 73 167 0.0 0.0 0.00 0.33 0.00 84 1013.3
20260831091446 73 167 0.0 0.0 0.00 0.33 0.00 84 1013.4
20260831091125 73 168 0.0 0.0 0.00 0.33 0.00 84 1013.4
20260831091021 73 167 0.0 0.0 0.00 0.33 0.00 84 1013.4
20260831090918 73 165 0.0 0.0 0.00 0.33 0.00 84 1013.3
20260831090812 73 193 0.0 0.0 0.00 0.33 0.00 84 1013.4
20260831090705 73 229 0.0 0.0 0.00 0.33 0.00 84 1013.4
20260831090600 73 317 0.0 2.0 0.00 0.33 0.00 84 1013.4
20260831090452 73 318 0.0 2.0 0.00 0.33 0.00 84 1013.4
20260831090350 73 182 0.0 2.0 0.00 0.33 0.00 84 1013.4
20260831090247 73 182 0.0 2.0 0.00 0.33 0.00 84 1013.4
20260831085925 73 209 0.0 0.0 0.00 0.33 0.00 84 1013.4
20260831085341 73 190 0.0 0.0 0.00 0.33 0.00 83 1013.4
20260831085238 73 190 0.0 0.0 0.00 0.33 0.00 83 1013.4
20260831084655 73 188 0.0 2.0 0.00 0.33 0.00 84 1013.4
20260831084553 73 184 0.0 0.0 0.00 0.33 0.00 83 1013.4
20260831084451 73 192 0.0 0.0 0.00 0.33 0.00 83 1013.4
20260831084346 73 192 0.0 0.0 0.00 0.33 0.00 83 1013.4
20260831084243 73 192 0.0 0.0 0.00 0.33 0.00 83 1013.4
20260831084136 73 192 0.0 0.0 0.00 0.33 0.00 83 1013.4
20260831084032 73 192 0.0 0.0 0.00 0.33 0.00 83 1013.4
20260831083928 73 192 0.0 0.0 0.00 0.33 0.00 83 1013.3
20260831083825 73 192 0.0 0.0 0.00 0.33 0.00 83 1013.3
20260831083456 73 192 0.0 0.0 0.00 0.33 0.00 83 1013.3
20260831083349 73 211 0.0 0.0 0.00 0.33 0.00 83 1013.3
20260831083243 73 211 0.0 2.0 0.00 0.33 0.00 83 1013.3
20260831083136 73 211 0.0 2.0 0.00 0.33 0.00 83 1013.3
20260831083032 73 183 0.0 0.0 0.00 0.33 0.00 83 1013.3
20260831082930 73 183 0.0 0.0 0.00 0.33 0.00 83 1013.3
20260831082824 73 198 0.0 0.0 0.00 0.33 0.00 83 1013.3
20260831082717 73 198 0.0 0.0 0.00 0.33 0.00 83 1013.3
20260831082611 73 198 0.0 0.0 0.00 0.33 0.00 83 1013.3
20260831082507 73 198 0.0 0.0 0.00 0.33 0.00 83 1013.3
20260831082400 73 200 0.0 0.0 0.00 0.33 0.00 83 1013.3
20260831082255 73 200 0.0 2.0 0.00 0.33 0.00 83 1013.3
20260831082150 73 229 0.0 2.0 0.00 0.33 0.00 83 1013.3
20260831082048 73 236 0.0 2.0 0.00 0.33 0.00 83 1013.4
20260831081945 73 236 0.0 2.0 0.00 0.33 0.00 83 1013.3
20260831081838 73 173 0.0 1.0 0.00 0.33 0.00 83 1013.3
20260831081731 73 169 0.0 1.0 0.00 0.33 0.00 83 1013.3
20260831081627 73 186 0.0 0.0 0.00 0.34 0.00 83 1013.3
20260831081520 73 186 0.0 0.0 0.00 0.34 0.00 83 1013.3
20260831081415 73 200 0.0 3.0 0.00 0.34 0.00 83 1013.3
20260831081312 73 192 0.0 3.0 0.00 0.34 0.00 83 1013.3
20260831081207 73 171 0.0 0.0 0.00 0.34 0.00 83 1013.3
20260831081059 73 171 0.0 0.0 0.00 0.34 0.00 83 1013.2
20260831080953 73 196 0.0 0.0 0.00 0.34 0.00 82 1013.2
20260831080848 73 175 0.0 4.0 0.00 0.34 0.00 82 1013.2
20260831080741 73 175 0.0 4.0 0.00 0.34 0.00 82 1013.2
20260831080422 73 244 0.0 0.0 0.00 0.34 0.00 82 1013.1
20260831080320 73 163 0.0 0.0 0.00 0.34 0.00 82 1013.1
20260831080213 73 163 0.0 1.0 0.00 0.34 0.00 82 1013.1
20260831080110 73 185 0.0 1.0 0.00 0.34 0.00 82 1013.2
20260831080004 74 188 0.0 0.0 0.00 0.34 0.00 82 1013.2
20260831075902 74 188 0.0 1.0 0.00 0.34 0.00 82 1013.2
20260831075756 74 188 0.0 1.0 0.00 0.34 0.00 82 1013.2
20260831075653 74 202 0.0 3.0 0.00 0.34 0.00 82 1013.2
20260831075107 74 186 0.0 0.0 0.00 0.34 0.00 82 1013.3
20260831075004 74 186 0.0 0.0 0.00 0.34 0.00 82 1013.4
20260831074859 74 186 0.0 0.0 0.00 0.34 0.00 82 1013.4
20260831074755 74 186 0.0 0.0 0.00 0.34 0.00 82 1013.4
20260831074651 74 186 0.0 0.0 0.00 0.34 0.00 82 1013.4
20260831074325 74 186 0.0 0.0 0.00 0.34 0.00 82 1013.4
20260831074222 74 186 0.0 0.0 0.00 0.34 0.00 81 1013.4
20260831074118 74 186 0.0 0.0 0.00 0.34 0.00 81 1013.4
20260831073749 74 188 0.0 2.0 0.00 0.34 0.00 81 1013.4
20260831073642 74 188 0.0 2.0 0.00 0.34 0.00 81 1013.4
20260831073539 74 163 0.0 0.0 0.00 0.34 0.00 81 1013.4
20260831073431 74 163 0.0 1.0 0.00 0.34 0.00 81 1013.4
20260831073329 74 163 0.0 1.0 0.00 0.34 0.00 81 1013.3
20260831073223 74 161 0.0 0.0 0.00 0.34 0.00 81 1013.4
20260831073121 74 160 0.0 3.0 0.00 0.34 0.00 81 1013.4
20260831073016 74 161 0.0 3.0 0.00 0.34 0.00 81 1013.4
20260831072914 74 174 0.0 0.0 0.00 0.34 0.00 81 1013.4
20260831072808 74 175 0.0 0.0 0.00 0.34 0.00 81 1013.5
20260831072705 74 176 0.0 0.0 0.00 0.34 0.00 81 1013.5
20260831072557 74 175 0.0 0.0 0.00 0.34 0.00 81 1013.6
20260831072451 74 175 0.0 0.0 0.00 0.34 0.00 81 1013.6
20260831072343 74 175 0.0 2.0 0.00 0.34 0.00 81 1013.6
20260831072240 74 174 0.0 0.0 0.00 0.34 0.00 81 1013.7
20260831072135 74 204 0.0 0.0 0.00 0.34 0.00 81 1013.7
20260831072029 74 205 0.0 0.0 0.00 0.34 0.00 81 1013.7
20260831071922 74 205 0.0 0.0 0.00 0.34 0.00 81 1013.7
20260831071814 74 205 0.0 0.0 0.00 0.34 0.00 81 1013.8
20260831071710 74 205 0.0 1.0 0.00 0.34 0.00 81 1013.8
20260831071344 74 163 0.0 0.0 0.00 0.34 0.00 81 1013.9
20260831071237 74 163 0.0 4.0 0.00 0.34 0.00 81 1013.9
20260831071132 74 182 0.0 4.0 0.00 0.34 0.00 81 1013.9
20260831070812 74 176 0.0 2.0 0.00 0.34 0.00 81 1014.0
20260831070707 74 164 0.0 0.0 0.00 0.34 0.00 81 1014.0
20260831070602 74 164 0.0 0.0 0.00 0.34 0.00 81 1014.0
20260831070456 74 164 0.0 4.0 0.00 0.34 0.00 81 1014.0
20260831070132 74 226 0.0 4.0 0.00 0.34 0.00 82 1014.1
20260831070026 74 196 0.0 4.0 0.00 0.34 0.00 82 1014.1
20260831065442 73 179 0.0 0.0 0.00 0.34 0.00 82 1014.1
20260831065337 73 179 0.0 0.0 0.00 0.34 0.00 83 1014.1
20260831065231 73 216 0.0 0.0 0.00 0.34 0.00 83 1014.1
20260831065129 73 182 0.0 0.0 0.00 0.34 0.00 83 1014.2
20260831065023 73 181 0.0 0.0 0.00 0.34 0.00 83 1014.1
20260831064920 73 180 0.0 0.0 0.00 0.34 0.00 83 1014.2
20260831064812 73 180 0.0 0.0 0.00 0.34 0.00 83 1014.2
20260831064706 73 180 0.0 1.0 0.00 0.34 0.00 83 1014.2
20260831064604 73 180 0.0 1.0 0.00 0.34 0.00 84 1014.1
20260831064458 73 194 0.0 0.0 0.00 0.34 0.00 84 1014.1
20260831064352 72 196 0.0 0.0 0.00 0.34 0.00 84 1014.2
20260831064026 72 179 0.0 0.0 0.00 0.34 0.00 85 1014.2
20260831063920 72 177 0.0 0.0 0.00 0.34 0.00 85 1014.2
20260831063814 72 178 0.0 0.0 0.00 0.34 0.00 86 1014.2
20260831063711 72 178 0.0 0.0 0.00 0.34 0.00 86 1014.2
20260831063606 72 176 0.0 0.0 0.00 0.34 0.00 86 1014.2
20260831063503 71 176 0.0 0.0 0.00 0.34 0.00 86 1014.2
20260831063358 71 177 0.0 0.0 0.00 0.34 0.00 87 1014.2
20260831063253 71 177 0.0 0.0 0.00 0.34 0.00 87 1014.2
20260831063151 71 167 0.0 0.0 0.00 0.34 0.00 87 1014.2
20260831063049 71 167 0.0 0.0 0.00 0.34 0.00 88 1014.1
20260831062943 71 166 0.0 0.0 0.00 0.34 0.00 88 1014.1
20260831062836 71 166 0.0 0.0 0.00 0.34 0.00 88 1014.1
20260831062732 71 166 0.0 0.0 0.00 0.34 0.00 88 1014.2
20260831062630 71 166 0.0 0.0 0.00 0.34 0.00 88 1014.2
20260831062523 71 164 0.0 0.0 0.00 0.34 0.00 88 1014.1
20260831062420 71 163 0.0 0.0 0.00 0.34 0.00 88 1014.2
20260831062314 71 163 0.0 0.0 0.00 0.34 0.00 88 1014.1
20260831062208 70 163 0.0 0.0 0.00 0.34 0.00 88 1014.1
20260831061840 71 163 0.0 0.0 0.00 0.34 0.00 88 1014.3
20260831061733 71 163 0.0 0.0 0.00 0.34 0.00 88 1014.3
20260831061406 71 163 0.0 0.0 0.00 0.34 0.00 88 1014.4
20260831061300 71 163 0.0 0.0 0.00 0.34 0.00 88 1014.4
20260831061158 71 163 0.0 0.0 0.00 0.34 0.00 88 1014.4
20260831061051 71 163 0.0 0.0 0.00 0.34 0.00 87 1014.5
20260831060943 71 163 0.0 0.0 0.00 0.34 0.00 87 1014.4
20260831060838 71 163 0.0 0.0 0.00 0.34 0.00 87 1014.4
20260831060729 71 163 0.0 0.0 0.00 0.34 0.00 87 1014.4
20260831060406 71 163 0.0 0.0 0.00 0.34 0.00 87 1014.4
20260831060304 71 163 0.0 0.0 0.00 0.34 0.00 87 1014.4
20260831060202 71 163 0.0 0.0 0.00 0.34 0.00 87 1014.5
20260831060059 71 163 0.0 0.0 0.00 0.34 0.00 87 1014.5
20260831055952 71 163 0.0 0.0 0.00 0.34 0.00 87 1014.4
20260831055849 71 163 0.0 0.0 0.00 0.34 0.00 87 1014.4
20260831055743 71 163 0.0 0.0 0.00 0.34 0.00 86 1014.4
20260831055419 71 163 0.0 0.0 0.00 0.34 0.00 86 1014.3
20260831055313 71 163 0.0 0.0 0.00 0.34 0.00 86 1014.3
20260831055206 71 163 0.0 0.0 0.00 0.34 0.00 86 1014.3
20260831055104 71 163 0.0 0.0 0.00 0.34 0.00 86 1014.3
20260831055001 71 163 0.0 0.0 0.00 0.34 0.00 86 1014.3
20260831054636 71 163 0.0 0.0 0.00 0.34 0.00 85 1014.3
20260831054532 71 163 0.0 0.0 0.00 0.34 0.00 85 1014.3
20260831054429 72 163 0.0 0.0 0.00 0.34 0.00 86 1014.3
20260831054327 72 163 0.0 0.0 0.00 0.34 0.00 86 1014.3
20260831054223 72 163 0.0 0.0 0.00 0.34 0.00 85 1014.3
20260831054115 72 163 0.0 0.0 0.00 0.34 0.00 85 1014.3
20260831053748 72 163 0.0 0.0 0.00 0.34 0.00 85 1014.2
20260831053644 72 163 0.0 0.0 0.00 0.34 0.00 85 1014.2
20260831053538 72 163 0.0 0.0 0.00 0.34 0.00 85 1014.1
20260831053434 72 163 0.0 0.0 0.00 0.34 0.00 85 1014.1
20260831053330 72 163 0.0 0.0 0.00 0.34 0.00 85 1014.1
20260831053226 72 163 0.0 0.0 0.00 0.34 0.00 85 1014.1
20260831053123 72 163 0.0 0.0 0.00 0.34 0.00 85 1014.1
20260831053019 72 163 0.0 0.0 0.00 0.34 0.00 85 1014.1
20260831052916 72 163 0.0 0.0 0.00 0.34 0.00 85 1014.1
20260831052813 72 163 0.0 0.0 0.00 0.34 0.00 85 1014.2
20260831052710 72 163 0.0 0.0 0.00 0.34 0.00 85 1014.2
20260831052124 72 163 0.0 0.0 0.00 0.34 0.00 85 1014.1
20260831052022 72 163 0.0 0.0 0.00 0.34 0.00 85 1014.1
20260831051917 72 163 0.0 0.0 0.00 0.34 0.00 85 1014.1
20260831051815 72 163 0.0 0.0 0.00 0.34 0.00 85 1014.1
20260831051455 72 163 0.0 0.0 0.00 0.34 0.00 85 1013.9
20260831051351 72 163 0.0 0.0 0.00 0.34 0.00 85 1013.9
20260831051245 72 163 0.0 0.0 0.00 0.34 0.00 85 1013.9
20260831051137 72 163 0.0 0.0 0.00 0.34 0.00 85 1014.0
20260831051034 72 163 0.0 0.0 0.00 0.34 0.00 85 1013.9
20260831050929 72 163 0.0 0.0 0.00 0.34 0.00 85 1013.9
20260831050603 72 181 0.0 0.0 0.00 0.34 0.00 85 1013.9
20260831050501 72 181 0.0 0.0 0.00 0.34 0.00 85 1013.9
20260831050358 72 181 0.0 0.0 0.00 0.34 0.00 85 1013.9
20260831050256 72 181 0.0 0.0 0.00 0.34 0.00 85 1013.9
20260831050149 72 181 0.0 0.0 0.00 0.34 0.00 85 1014.0
20260831050042 72 181 0.0 0.0 0.00 0.34 0.00 85 1013.9
20260831045935 72 181 0.0 0.0 0.00 0.34 0.00 85 1014.0
20260831045616 72 181 0.0 0.0 0.00 0.34 0.00 85 1014.0
20260831045511 72 181 0.0 0.0 0.00 0.34 0.00 85 1014.0
20260831045406 72 181 0.0 0.0 0.00 0.34 0.00 85 1014.0
20260831045041 72 182 0.0 0.0 0.00 0.34 0.00 85 1014.1
20260831044938 72 182 0.0 0.0 0.00 0.34 0.00 85 1014.1
20260831044837 72 182 0.0 0.0 0.00 0.34 0.00 84 1014.1
20260831044732 72 182 0.0 0.0 0.00 0.34 0.00 84 1014.1
20260831044626 72 182 0.0 0.0 0.00 0.34 0.00 84 1014.1
20260831044521 72 182 0.0 0.0 0.00 0.34 0.00 84 1014.2
20260831044416 72 182 0.0 0.0 0.00 0.34 0.00 84 1014.2
20260831044309 72 182 0.0 0.0 0.00 0.34 0.00 84 1014.2
20260831044204 72 182 0.0 0.0 0.00 0.34 0.00 84 1014.2
20260831044058 72 182 0.0 0.0 0.00 0.34 0.00 84 1014.2
20260831043953 72 182 0.0 0.0 0.00 0.34 0.00 84 1014.2
20260831043847 72 182 0.0 0.0 0.00 0.34 0.00 84 1014.2
20260831043520 72 182 0.0 0.0 0.00 0.35 0.00 84 1014.2
20260831043413 72 182 0.0 0.0 0.00 0.35 0.00 84 1014.2
20260831043309 72 182 0.0 0.0 0.00 0.35 0.00 84 1014.3
20260831043207 72 195 0.0 0.0 0.00 0.35 0.00 84 1014.3
20260831043103 72 196 0.0 0.0 0.00 0.35 0.00 84 1014.3
20260831042957 72 196 0.0 0.0 0.00 0.35 0.00 84 1014.3
20260831042852 72 196 0.0 0.0 0.00 0.35 0.00 85 1014.3
20260831042746 72 196 0.0 0.0 0.00 0.35 0.00 85 1014.3
20260831042638 72 196 0.0 0.0 0.00 0.35 0.00 85 1014.4
20260831042536 72 196 0.0 0.0 0.00 0.35 0.00 85 1014.4
20260831042429 72 197 0.0 0.0 0.00 0.35 0.00 85 1014.4
20260831042105 72 196 0.0 0.0 0.00 0.35 0.00 85 1014.4
20260831042000 72 196 0.0 0.0 0.00 0.35 0.00 85 1014.4
20260831041853 72 196 0.0 0.0 0.00 0.35 0.00 85 1014.4
20260831041749 72 195 0.0 0.0 0.00 0.35 0.00 85 1014.4
20260831041645 72 194 0.0 5.0 0.00 0.35 0.00 86 1014.5
20260831040923 72 184 0.0 0.0 0.00 0.35 0.00 87 1014.4
20260831040817 72 186 0.0 0.0 0.00 0.35 0.00 87 1014.5
20260831040710 72 169 0.0 0.0 0.00 0.35 0.00 87 1014.4
20260831040604 72 195 0.0 0.0 0.00 0.35 0.00 87 1014.5
20260831040458 72 194 0.0 0.0 0.00 0.35 0.00 87 1014.5
20260831040352 72 210 0.0 0.0 0.00 0.35 0.00 87 1014.5
20260831040025 72 193 0.0 0.0 0.00 0.35 0.00 87 1014.4
20260831035918 72 193 0.0 0.0 0.00 0.35 0.35 87 1014.4
20260831035548 72 173 0.0 2.0 0.00 0.35 0.35 87 1014.4
20260831035444 72 213 0.0 0.0 0.00 0.35 0.35 87 1014.4
20260831035341 72 185 0.0 0.0 0.00 0.35 0.35 87 1014.4
20260831035233 72 175 0.0 0.0 0.00 0.35 0.35 88 1014.4
20260831034911 72 188 0.0 0.0 0.00 0.35 0.35 88 1014.4
20260831034807 71 188 0.0 0.0 0.00 0.35 0.35 88 1014.4
20260831034444 71 186 0.0 0.0 0.00 0.35 0.35 88 1014.5
20260831034341 71 187 0.0 0.0 0.00 0.35 0.35 88 1014.5
20260831034239 71 187 0.0 0.0 0.00 0.35 0.35 88 1014.5
20260831033914 71 188 0.0 0.0 0.00 0.35 0.35 89 1014.5
20260831033811 71 188 0.0 0.0 0.00 0.35 0.35 89 1014.5
20260831033709 71 188 0.0 0.0 0.00 0.35 0.35 89 1014.5
20260831033346 71 188 0.0 3.0 0.00 0.35 0.35 89 1014.5
20260831033244 71 188 0.0 3.0 0.00 0.35 0.35 89 1014.5
20260831033141 71 225 0.0 2.0 0.00 0.35 0.35 89 1014.5
20260831032819 71 167 0.0 0.0 0.00 0.35 0.35 89 1014.5
20260831032715 71 167 0.0 0.0 0.00 0.35 0.35 89 1014.5
20260831032611 71 144 0.0 0.0 0.00 0.35 0.35 89 1014.6
20260831032505 71 170 0.0 0.0 0.00 0.35 0.35 89 1014.5
20260831032402 71 171 0.0 0.0 0.00 0.35 0.35 89 1014.6
20260831032258 71 171 0.0 0.0 0.00 0.35 0.35 89 1014.6
20260831031719 71 171 0.0 0.0 0.00 0.35 0.35 89 1014.6
20260831031615 71 171 0.0 0.0 0.00 0.35 0.35 89 1014.6
20260831031038 71 165 0.0 0.0 0.00 0.35 0.35 89 1014.7
20260831030229 71 165 0.0 0.0 0.00 0.35 0.35 89 1014.7
20260831025901 71 165 0.0 0.0 0.00 0.35 0.35 89 1014.7
20260831025541 71 157 0.0 0.0 0.00 0.35 0.35 89 1014.7
20260831025438 71 157 0.0 0.0 0.00 0.35 0.35 89 1014.7
20260831025336 71 157 0.0 0.0 0.00 0.35 0.35 89 1014.6
20260831025233 71 157 0.0 0.0 0.00 0.35 0.35 89 1014.6
20260831025128 71 157 0.0 0.0 0.00 0.35 0.35 89 1014.6
20260831025022 71 157 0.0 0.0 0.00 0.35 0.35 89 1014.5
20260831024915 71 157 0.0 0.0 0.00 0.35 0.35 89 1014.5
20260831024329 71 157 0.0 0.0 0.00 0.35 0.35 89 1014.5
20260831024222 71 157 0.0 0.0 0.00 0.35 0.35 89 1014.5
20260831024117 71 157 0.0 0.0 0.00 0.35 0.35 89 1014.5
20260831023311 71 138 0.0 0.0 0.00 0.35 0.35 89 1014.3
20260831023207 71 192 0.0 0.0 0.00 0.35 0.35 89 1014.4
20260831023103 71 192 0.0 0.0 0.00 0.35 0.35 89 1014.3
20260831022515 71 193 0.0 0.0 0.00 0.35 0.35 89 1014.3
20260831021932 71 193 0.0 0.0 0.00 0.35 0.35 89 1014.2
20260831021829 71 191 0.0 0.0 0.00 0.35 0.35 89 1014.1
20260831021725 71 188 0.0 0.0 0.00 0.35 0.35 89 1014.2
20260831021358 71 188 0.0 0.0 0.00 0.35 0.35 89 1014.1
20260831021256 71 188 0.0 0.0 0.00 0.35 0.35 89 1014.1
20260831020933 71 146 0.0 0.0 0.00 0.35 0.35 89 1014.0
20260831020827 71 146 0.0 0.0 0.00 0.35 0.35 89 1014.0
20260831020723 71 148 0.0 0.0 0.00 0.35 0.35 89 1014.0
20260831020618 71 148 0.0 0.0 0.00 0.35 0.35 89 1014.0
20260831020513 71 148 0.0 0.0 0.00 0.35 0.35 89 1014.0
20260831020407 71 147 0.0 3.0 0.00 0.35 0.35 88 1014.1
20260831015826 71 155 0.0 0.0 0.00 0.35 0.35 88 1014.1
20260831015722 71 155 0.0 0.0 0.00 0.35 0.35 88 1014.1
20260831015354 71 155 0.0 0.0 0.00 0.35 0.35 88 1014.0
20260831015249 71 155 0.0 0.0 0.00 0.35 0.35 88 1014.0
20260831014925 71 155 0.0 0.0 0.00 0.35 0.35 88 1013.9
20260831014820 71 155 0.0 0.0 0.00 0.35 0.35 88 1014.0
20260831014457 71 143 0.0 0.0 0.00 0.35 0.35 88 1014.0
20260831014351 71 143 0.0 0.0 0.00 0.35 0.35 89 1014.0
20260831014246 71 142 0.0 0.0 0.00 0.35 0.35 88 1014.0
20260831014142 71 142 0.0 0.0 0.00 0.35 0.35 89 1013.9
20260831014036 71 142 0.0 0.0 0.00 0.35 0.35 89 1013.9
20260831013710 71 139 0.0 0.0 0.00 0.35 0.35 89 1013.8
20260831013603 71 139 0.0 0.0 0.00 0.35 0.35 89 1013.8
20260831013458 71 184 0.0 0.0 0.00 0.35 0.35 89 1013.8
20260831013356 71 184 0.0 0.0 0.00 0.35 0.35 89 1013.7
20260831013254 71 194 0.0 0.0 0.00 0.35 0.35 89 1013.8
20260831013150 71 195 0.0 0.0 0.00 0.35 0.35 89 1013.8
20260831013045 71 196 0.0 3.0 0.00 0.35 0.35 89 1013.7
20260831012943 71 196 0.0 3.0 0.00 0.35 0.35 89 1013.8
20260831012838 71 187 0.0 0.0 0.00 0.35 0.35 89 1013.8
20260831012732 71 188 0.0 2.0 0.00 0.35 0.35 89 1013.8
20260831012630 71 188 0.0 2.0 0.00 0.35 0.35 89 1013.8
20260831012525 71 188 0.0 2.0 0.00 0.35 0.35 89 1013.8
20260831012419 71 181 0.0 0.0 0.00 0.35 0.35 89 1013.8
20260831012314 71 181 0.0 0.0 0.00 0.35 0.35 89 1013.8
20260831012206 71 182 0.0 0.0 0.00 0.35 0.35 89 1013.8
20260831012103 71 183 0.0 0.0 0.00 0.35 0.35 89 1013.8
20260831011959 71 175 0.0 0.0 0.00 0.35 0.35 89 1013.8
20260831011856 71 151 0.0 0.0 0.00 0.35 0.35 89 1013.8
20260831011752 71 151 0.0 0.0 0.00 0.35 0.35 89 1013.8
20260831011422 71 180 0.0 0.0 0.00 0.35 0.35 89 1013.7
20260831011318 71 157 0.0 0.0 0.00 0.35 0.35 89 1013.7
20260831011213 71 156 0.0 0.0 0.00 0.35 0.35 89 1013.7
20260831011107 71 157 0.0 0.0 0.00 0.35 0.35 89 1013.7
20260831011002 71 157 0.0 0.0 0.00 0.35 0.35 89 1013.7
20260831010858 71 157 0.0 0.0 0.00 0.35 0.35 89 1013.7
20260831010752 71 194 0.0 1.0 0.00 0.35 0.35 89 1013.7
20260831010650 71 191 0.0 0.0 0.00 0.35 0.35 89 1013.7
20260831010546 71 156 0.0 0.0 0.00 0.35 0.35 88 1013.7
20260831005957 71 156 0.0 0.0 0.00 0.35 0.35 89 1013.7
20260831005852 71 156 0.0 0.0 0.00 0.35 0.35 88 1013.6
20260831005747 71 156 0.0 0.0 0.00 0.35 0.35 88 1013.6
20260831005423 71 175 0.0 0.0 0.00 0.35 0.35 88 1013.5
20260831005319 71 175 0.0 0.0 0.00 0.35 0.35 88 1013.5
20260831005215 71 179 0.0 0.0 0.00 0.35 0.35 88 1013.5
20260831005108 71 179 0.0 0.0 0.00 0.35 0.35 88 1013.5
20260831005006 71 178 0.0 2.0 0.00 0.35 0.35 88 1013.5
20260831004900 71 178 0.0 2.0 0.00 0.35 0.35 88 1013.4
20260831004755 71 138 0.0 0.0 0.00 0.35 0.35 88 1013.4
20260831004648 71 155 0.0 0.0 0.00 0.35 0.35 88 1013.4
20260831004544 71 155 0.0 0.0 0.00 0.35 0.35 88 1013.4
20260831004221 71 157 0.0 0.0 0.00 0.35 0.35 88 1013.4
20260831004114 71 158 0.0 2.0 0.00 0.35 0.35 88 1013.4
20260831004009 71 173 0.0 2.0 0.00 0.35 0.35 88 1013.4
20260831003907 71 159 0.0 2.0 0.00 0.35 0.35 88 1013.4
20260831003803 71 167 0.0 2.0 0.00 0.35 0.35 88 1013.4
20260831003657 71 188 0.0 1.0 0.00 0.35 0.35 88 1013.4
20260831003550 71 186 0.0 2.0 0.00 0.35 0.35 88 1013.4
20260831003006 71 153 0.0 0.0 0.00 0.35 0.35 88 1013.4
20260831002903 71 153 0.0 1.0 0.00 0.35 0.35 88 1013.4
20260831002759 71 153 0.0 1.0 0.00 0.35 0.35 88 1013.4
20260831002652 71 142 0.0 0.0 0.00 0.35 0.35 88 1013.4
20260831002547 71 153 0.0 0.0 0.00 0.35 0.35 88 1013.4
20260831002441 71 153 0.0 1.0 0.00 0.35 0.35 88 1013.3
20260831002335 71 154 0.0 1.0 0.00 0.35 0.35 88 1013.3
20260831002229 72 158 0.0 0.0 0.00 0.35 0.35 88 1013.4
20260831002123 72 158 0.0 0.0 0.00 0.35 0.35 88 1013.4
20260831002020 72 155 0.0 0.0 0.00 0.35 0.35 87 1013.4
20260831001917 72 155 0.0 0.0 0.00 0.35 0.35 87 1013.4
20260831001812 72 155 0.0 0.0 0.00 0.35 0.35 87 1013.4
20260831001706 72 155 0.0 1.0 0.00 0.35 0.35 87 1013.4
20260831001600 72 154 0.0 0.0 0.00 0.35 0.35 87 1013.4
20260831001457 72 155 0.0 0.0 0.00 0.35 0.35 87 1013.5
20260831001351 72 157 0.0 0.0 0.00 0.35 0.35 87 1013.5
20260831001248 72 163 0.0 0.0 0.00 0.35 0.35 87 1013.5
20260831001140 72 163 0.0 0.0 0.00 0.35 0.35 87 1013.4
20260831001036 72 160 0.0 0.0 0.00 0.35 0.35 87 1013.5
20260831000933 72 160 0.0 0.0 0.00 0.35 0.35 87 1013.5
20260831000831 72 160 0.0 0.0 0.00 0.35 0.35 87 1013.5
20260831000728 72 157 0.0 3.0 0.00 0.35 0.35 87 1013.5
20260831000403 72 162 0.0 0.0 0.00 0.35 0.35 87 1013.5
20260831000036 72 140 0.0 4.0 0.00 0.35 0.35 87 1013.4
20260830235928 72 135 0.0 4.0 0.00 0.35 0.35 87 1013.4
20260830235824 72 149 0.0 4.0 0.00 0.35 0.35 87 1013.4
20260830235504 72 136 0.0 3.0 0.00 0.35 0.35 87 1013.5
20260830235358 72 136 0.0 3.0 0.00 0.35 0.35 87 1013.4
20260830235252 72 149 0.0 3.0 0.00 0.35 0.35 87 1013.5
20260830235146 72 146 0.0 3.0 0.00 0.35 0.35 87 1013.5
20260830234827 72 162 0.0 1.0 0.00 0.35 0.35 87 1013.5
20260830234724 72 158 0.0 0.0 0.00 0.35 0.35 87 1013.6
20260830234620 72 159 0.0 0.0 0.00 0.35 0.35 87 1013.6
20260830234516 72 155 0.0 0.0 0.00 0.35 0.35 87 1013.6
20260830234413 72 155 0.0 0.0 0.00 0.35 0.35 87 1013.6
20260830234309 72 155 0.0 0.0 0.00 0.35 0.35 87 1013.7
20260830234205 72 157 0.0 0.0 0.00 0.35 0.35 87 1013.6
20260830234102 72 157 0.0 1.0 0.00 0.35 0.35 87 1013.6
20260830233738 72 175 0.0 0.0 0.00 0.35 0.35 87 1013.7
20260830233412 72 163 0.0 0.0 0.00 0.35 0.35 87 1013.7
20260830233308 72 164 0.0 0.0 0.00 0.35 0.35 86 1013.7
20260830233203 72 164 0.0 0.0 0.00 0.35 0.35 87 1013.8
20260830233100 72 164 0.0 0.0 0.00 0.35 0.35 87 1013.8
20260830232954 72 164 0.0 0.0 0.00 0.35 0.35 87 1013.8
20260830232851 72 164 0.0 0.0 0.00 0.35 0.35 86 1013.8
20260830232744 72 163 0.0 0.0 0.00 0.35 0.35 86 1013.8
20260830232637 73 163 0.0 0.0 0.00 0.35 0.35 86 1013.8
20260830232309 73 164 0.0 0.0 0.00 0.35 0.35 86 1013.8
20260830232205 73 173 0.0 0.0 0.00 0.35 0.35 86 1013.8
20260830232103 73 173 0.0 0.0 0.00 0.35 0.35 86 1013.8
20260830231956 73 178 0.0 0.0 0.00 0.35 0.35 86 1013.8
20260830231851 73 178 0.0 0.0 0.00 0.35 0.35 86 1013.9
20260830231750 73 178 0.0 1.0 0.00 0.35 0.35 86 1013.9
20260830231647 73 200 0.0 1.0 0.00 0.35 0.35 86 1013.9
20260830231541 73 150 0.0 0.0 0.00 0.35 0.35 86 1013.8
20260830231436 73 150 0.0 0.0 0.00 0.35 0.35 86 1013.9
20260830231333 73 173 0.0 1.0 0.00 0.35 0.35 86 1013.9
20260830231229 73 178 0.0 1.0 0.00 0.35 0.35 86 1013.9
20260830231122 73 157 0.0 0.0 0.00 0.35 0.35 86 1013.9
20260830231019 73 157 0.0 0.0 0.00 0.35 0.35 86 1013.9
20260830230213 73 159 0.0 0.0 0.00 0.35 0.35 86 1013.9
20260830225845 73 145 0.0 0.0 0.00 0.35 0.35 86 1013.9
20260830225741 73 144 0.0 0.0 0.00 0.35 0.35 86 1014.0
20260830225639 73 152 0.0 0.0 0.00 0.35 0.35 86 1014.0
20260830225535 73 152 0.0 0.0 0.00 0.35 0.35 86 1014.0
20260830225432 73 152 0.0 0.0 0.00 0.35 0.35 86 1014.0
20260830225326 73 152 0.0 0.0 0.00 0.35 0.35 86 1013.9
20260830225004 73 152 0.0 0.0 0.00 0.35 0.35 86 1014.0
20260830224643 73 153 0.0 2.0 0.00 0.35 0.35 86 1013.9
20260830224536 73 154 0.0 2.0 0.00 0.35 0.35 86 1013.9
20260830224434 73 154 0.0 2.0 0.00 0.35 0.35 86 1013.9
20260830224330 73 128 0.0 0.0 0.00 0.35 0.35 86 1014.0
20260830224227 73 162 0.0 0.0 0.00 0.35 0.35 86 1014.0
20260830224125 73 141 0.0 0.0 0.00 0.35 0.35 86 1014.0
20260830224020 73 140 0.0 0.0 0.00 0.35 0.35 86 1014.0
20260830223650 73 148 0.0 3.0 0.00 0.35 0.35 86 1014.1
20260830223548 73 148 0.0 3.0 0.00 0.35 0.35 87 1014.1
20260830223444 73 145 0.0 0.0 0.00 0.35 0.35 86 1014.1
20260830223340 73 145 0.0 0.0 0.00 0.35 0.35 87 1014.1
20260830223237 73 143 0.0 0.0 0.00 0.35 0.35 87 1014.1
20260830223130 73 144 0.0 0.0 0.00 0.35 0.35 87 1014.1
20260830223025 73 144 0.0 0.0 0.00 0.35 0.35 87 1014.1
20260830222921 73 144 0.0 0.0 0.00 0.35 0.35 87 1014.1
20260830222818 73 144 0.0 0.0 0.00 0.35 0.35 87 1014.1
20260830222454 73 115 0.0 0.0 0.00 0.35 0.35 87 1014.2
20260830222349 73 115 0.0 0.0 0.00 0.35 0.35 88 1014.1
20260830222247 73 115 0.0 0.0 0.00 0.35 0.35 88 1014.2
20260830222140 73 115 0.0 0.0 0.00 0.35 0.35 88 1014.2
20260830222035 73 115 0.0 0.0 0.00 0.35 0.35 88 1014.2
20260830221928 73 115 0.0 0.0 0.00 0.35 0.35 88 1014.2
20260830221822 73 115 0.0 0.0 0.00 0.35 0.35 88 1014.2
20260830221714 73 115 0.0 0.0 0.00 0.35 0.35 88 1014.2
20260830221352 73 115 0.0 0.0 0.00 0.35 0.35 88 1014.2
20260830221247 73 115 0.0 0.0 0.00 0.35 0.35 88 1014.2
20260830221140 73 115 0.0 0.0 0.00 0.35 0.35 88 1014.2
20260830221035 73 115 0.0 0.0 0.00 0.35 0.35 88 1014.2
20260830220928 73 114 0.0 0.0 0.00 0.35 0.35 88 1014.2
20260830220823 73 114 0.0 0.0 0.00 0.35 0.35 88 1014.2
20260830220716 73 113 0.0 0.0 0.00 0.35 0.35 88 1014.2
20260830220609 73 113 0.0 0.0 0.00 0.35 0.35 88 1014.2
20260830220506 73 113 0.0 0.0 0.00 0.35 0.35 88 1014.3
20260830220401 73 113 0.0 0.0 0.00 0.35 0.35 88 1014.3
20260830220038 72 111 0.0 0.0 0.00 0.35 0.35 89 1014.4
20260830215709 72 111 0.0 0.0 0.00 0.35 0.35 88 1014.5
20260830215605 72 111 0.0 0.0 0.00 0.35 0.35 88 1014.5
20260830215503 72 111 0.0 0.0 0.00 0.35 0.35 88 1014.5
20260830215355 72 111 0.0 0.0 0.00 0.35 0.35 88 1014.5
20260830215025 72 111 0.0 0.0 0.00 0.35 0.35 88 1014.5
20260830214921 72 111 0.0 0.0 0.00 0.35 0.35 88 1014.5
20260830214814 72 111 0.0 0.0 0.00 0.35 0.35 88 1014.5
20260830214707 72 111 0.0 0.0 0.00 0.35 0.35 88 1014.5
20260830214601 72 111 0.0 0.0 0.00 0.35 0.35 88 1014.4
20260830214459 72 111 0.0 0.0 0.00 0.35 0.35 88 1014.5
20260830214355 72 111 0.0 0.0 0.00 0.35 0.35 88 1014.4
20260830214248 72 111 0.0 0.0 0.00 0.35 0.35 88 1014.4
20260830214144 72 111 0.0 0.0 0.00 0.35 0.35 88 1014.4
20260830214037 72 111 0.0 0.0 0.00 0.35 0.35 88 1014.4
20260830213931 72 111 0.0 0.0 0.00 0.35 0.35 88 1014.4
20260830213827 72 111 0.0 0.0 0.00 0.35 0.35 88 1014.4
20260830213722 72 111 0.0 0.0 0.00 0.35 0.35 88 1014.4
20260830213616 72 111 0.0 0.0 0.00 0.35 0.35 88 1014.4
20260830213514 72 111 0.0 0.0 0.00 0.35 0.35 88 1014.4
20260830213406 72 111 0.0 0.0 0.00 0.35 0.35 87 1014.4
20260830213304 72 111 0.0 0.0 0.00 0.35 0.35 87 1014.4
20260830213158 72 111 0.0 0.0 0.00 0.35 0.35 87 1014.3
20260830212832 72 111 0.0 0.0 0.00 0.35 0.35 87 1014.3
20260830212724 72 111 0.0 0.0 0.00 0.35 0.35 87 1014.2
20260830212618 72 111 0.0 0.0 0.00 0.35 0.35 86 1014.3
20260830212512 72 198 0.0 0.0 0.00 0.35 0.35 86 1014.3
20260830212147 72 198 0.0 0.0 0.00 0.35 0.35 86 1014.3
20260830212044 72 198 0.0 0.0 0.00 0.35 0.35 86 1014.2
20260830211939 72 198 0.0 0.0 0.00 0.35 0.35 86 1014.3
20260830211615 73 198 0.0 0.0 0.04 0.35 0.35 85 1014.3
20260830211513 73 198 0.0 0.0 0.04 0.35 0.35 84 1014.3
20260830211410 73 198 0.0 0.0 0.04 0.35 0.35 84 1014.3
20260830211303 73 198 0.0 0.0 0.05 0.35 0.35 83 1014.4
20260830211156 73 198 0.0 0.0 0.05 0.35 0.35 83 1014.3
20260830211052 73 198 0.0 0.0 0.05 0.35 0.35 83 1014.3
20260830210944 73 198 0.0 0.0 0.06 0.35 0.35 83 1014.2
20260830210837 73 198 0.0 0.0 0.06 0.35 0.35 82 1014.1
20260830210729 73 198 0.0 0.0 0.08 0.35 0.35 81 1014.2
20260830210621 73 198 0.0 0.0 0.09 0.35 0.35 81 1014.2
20260830210254 74 198 0.0 0.0 0.20 0.35 0.35 79 1014.2
20260830210149 74 198 0.0 0.0 0.30 0.35 0.35 78 1014.1
20260830210042 74 198 0.0 0.0 0.31 0.35 0.35 78 1014.1
20260830205939 74 198 0.0 0.0 0.35 0.33 0.34 78 1014.1
20260830205836 74 198 0.0 0.0 0.38 0.33 0.34 78 1014.0
20260830205510 74 200 0.0 0.0 0.00 0.32 0.32 76 1014.0
20260830205145 74 218 0.0 1.0 0.00 0.32 0.32 76 1014.0
20260830204820 74 184 0.0 2.0 0.00 0.32 0.32 75 1014.0
20260830204717 74 232 0.0 0.0 0.00 0.32 0.32 75 1014.0
20260830204614 74 233 0.0 0.0 0.00 0.32 0.32 75 1014.0
20260830204512 74 281 0.0 0.0 0.00 0.32 0.32 75 1014.0
20260830204407 74 282 0.0 0.0 0.00 0.32 0.32 75 1014.0
20260830204302 74 180 0.0 0.0 0.00 0.32 0.32 75 1014.0
20260830204159 74 178 0.0 3.0 0.00 0.32 0.32 75 1014.0
20260830204056 74 230 0.0 3.0 0.00 0.32 0.32 75 1013.9
20260830203953 74 189 0.0 3.0 0.00 0.32 0.32 75 1013.9
20260830203845 75 190 0.0 3.0 0.00 0.32 0.32 76 1013.9
20260830203742 75 185 0.0 3.0 0.00 0.32 0.32 76 1013.8
20260830203638 75 275 0.0 3.0 0.00 0.32 0.32 76 1013.8
20260830203534 75 152 0.0 3.0 0.00 0.32 0.32 76 1013.8
20260830202946 75 200 0.0 3.0 0.00 0.32 0.32 77 1013.8
20260830202839 75 157 0.0 3.0 0.00 0.32 0.32 77 1013.8
20260830202736 75 191 0.0 2.0 0.00 0.32 0.32 77 1013.8
20260830202634 75 190 0.0 2.0 0.00 0.32 0.32 77 1013.8
20260830202309 75 219 0.0 2.0 0.00 0.32 0.32 79 1013.6
20260830202205 75 171 0.0 0.0 0.00 0.32 0.32 79 1013.6
20260830202102 75 171 0.0 6.0 0.00 0.32 0.32 79 1013.7
20260830201959 75 175 0.0 6.0 0.00 0.32 0.32 79 1013.6
20260830201852 75 172 0.0 6.0 0.00 0.32 0.32 78 1013.6
20260830201749 75 172 0.0 6.0 0.00 0.32 0.32 78 1013.6
20260830201645 74 178 0.0 6.0 0.00 0.32 0.32 78 1013.6
20260830201542 75 173 0.0 3.0 0.00 0.32 0.32 79 1013.5
20260830201435 75 176 0.0 3.0 0.00 0.32 0.32 79 1013.5
20260830201329 74 178 0.0 3.0 0.00 0.32 0.32 80 1013.5
20260830201223 74 161 0.0 0.0 0.00 0.32 0.32 80 1013.5
20260830201117 74 187 0.0 0.0 0.00 0.32 0.32 80 1013.5
20260830201015 74 191 0.0 0.0 0.00 0.32 0.32 80 1013.5
20260830200646 74 171 0.0 4.0 0.00 0.32 0.32 79 1013.5
20260830200542 74 189 0.0 0.0 0.00 0.32 0.32 80 1013.5
20260830200436 74 175 0.0 7.0 0.00 0.32 0.32 79 1013.5
20260830200329 74 205 0.0 7.0 0.00 0.32 0.32 80 1013.5
20260830200225 74 218 0.0 7.0 0.00 0.32 0.32 80 1013.5
20260830195856 75 155 0.0 6.0 0.00 0.32 0.32 80 1013.5
20260830195753 74 150 0.0 6.0 0.00 0.32 0.32 81 1013.4
20260830195651 74 186 0.0 6.0 0.00 0.32 0.32 80 1013.5
20260830195324 74 190 0.0 6.0 0.00 0.32 0.32 81 1013.5
20260830195220 74 167 0.0 6.0 0.00 0.32 0.32 82 1013.6
20260830195114 74 182 0.0 2.0 0.00 0.32 0.32 81 1013.6
20260830195011 74 210 0.0 2.0 0.00 0.32 0.32 81 1013.6
20260830194908 74 188 0.0 4.0 0.00 0.32 0.32 81 1013.7
20260830194802 74 171 0.0 4.0 0.00 0.32 0.32 81 1013.7
20260830194434 74 169 0.0 4.0 0.00 0.32 0.32 81 1013.7
20260830194328 74 150 0.0 4.0 0.00 0.32 0.32 81 1013.7
20260830194003 74 204 0.0 3.0 0.00 0.32 0.32 81 1013.8
20260830193858 74 202 0.0 0.0 0.00 0.32 0.32 82 1013.8
20260830193753 74 188 0.0 0.0 0.00 0.32 0.32 82 1013.7
20260830193426 74 196 0.0 6.0 0.00 0.32 0.32 82 1013.7
20260830193320 74 207 0.0 0.0 0.00 0.32 0.32 82 1013.7
20260830193213 74 192 0.0 0.0 0.00 0.32 0.32 83 1013.7
20260830193110 74 221 0.0 4.0 0.00 0.32 0.32 83 1013.7
20260830193004 74 187 0.0 4.0 0.00 0.32 0.32 83 1013.7
20260830192857 74 193 0.0 4.0 0.00 0.32 0.32 83 1013.7
20260830192754 74 188 0.0 1.0 0.00 0.32 0.32 83 1013.6
20260830192651 74 177 0.0 0.0 0.00 0.32 0.32 83 1013.6
20260830192546 74 171 1.0 10.0 0.00 0.32 0.32 83 1013.6
20260830192444 74 193 0.0 10.0 0.00 0.32 0.32 83 1013.6
20260830192337 73 204 0.0 10.0 0.00 0.32 0.32 84 1013.6
20260830192230 73 230 0.0 10.0 0.00 0.32 0.32 84 1013.6
20260830192123 73 183 0.0 10.0 0.00 0.32 0.32 84 1013.6
20260830192018 73 186 1.0 10.0 0.00 0.32 0.32 84 1013.6
20260830191654 73 180 1.0 10.0 0.00 0.32 0.32 84 1013.5
20260830191550 73 188 1.0 10.0 0.00 0.32 0.32 85 1013.6
20260830191445 73 189 1.0 10.0 0.00 0.32 0.32 84 1013.5
20260830191343 73 174 1.0 10.0 0.00 0.32 0.32 84 1013.6
20260830191236 73 186 1.0 6.0 0.00 0.32 0.32 84 1013.6
20260830191129 73 205 0.0 6.0 0.00 0.32 0.32 85 1013.6
20260830190759 72 198 0.0 6.0 0.00 0.32 0.32 85 1013.6
20260830190439 72 232 0.0 4.0 0.00 0.32 0.32 85 1013.6
20260830190333 72 136 0.0 1.0 0.00 0.32 0.32 85 1013.6
20260830190228 72 136 0.0 7.0 0.00 0.32 0.32 85 1013.7
20260830190125 72 184 0.0 7.0 0.00 0.32 0.32 84 1013.7
20260830190018 72 196 0.0 7.0 0.00 0.32 0.32 85 1013.7
20260830185915 72 126 0.0 6.0 0.00 0.32 0.32 85 1013.7
20260830185556 72 190 0.0 3.0 0.00 0.32 0.32 86 1013.7
20260830185450 72 209 0.0 3.0 0.00 0.32 0.32 86 1013.7
20260830185342 72 169 0.0 8.0 0.00 0.32 0.32 86 1013.7
20260830185238 72 198 0.0 8.0 0.00 0.32 0.32 86 1013.7
20260830185133 72 189 0.0 5.0 0.00 0.32 0.32 86 1013.7
20260830185030 72 169 0.0 5.0 0.00 0.32 0.32 86 1013.7
20260830184922 72 182 0.0 0.0 0.00 0.32 0.32 87 1013.7
20260830184816 72 178 0.0 0.0 0.00 0.32 0.32 86 1013.8
20260830184711 72 179 0.0 6.0 0.00 0.32 0.32 86 1013.8
20260830184345 71 179 0.0 6.0 0.00 0.32 0.32 86 1013.8
20260830184239 71 132 0.0 6.0 0.00 0.32 0.32 87 1013.7
20260830183914 71 187 0.0 6.0 0.00 0.32 0.32 87 1013.7
20260830183812 71 148 0.0 1.0 0.00 0.32 0.32 88 1013.7
20260830183710 71 148 0.0 1.0 0.00 0.32 0.32 88 1013.8
20260830183603 71 156 0.0 0.0 0.00 0.32 0.32 88 1013.9
20260830183500 71 152 0.0 0.0 0.00 0.32 0.32 87 1013.9
20260830183357 71 152 0.0 3.0 0.00 0.32 0.32 87 1014.0
20260830183255 71 157 0.0 3.0 0.00 0.32 0.32 88 1014.0
20260830183147 71 177 0.0 3.0 0.00 0.32 0.32 88 1014.0
20260830183046 71 192 0.0 3.0 0.00 0.32 0.32 89 1014.0
20260830182722 70 167 0.0 0.0 0.00 0.32 0.32 88 1013.9
20260830182617 70 167 0.0 3.0 0.00 0.32 0.32 87 1014.0
20260830182513 70 168 0.0 3.0 0.00 0.32 0.32 87 1014.0
20260830182405 70 180 0.0 2.0 0.00 0.32 0.32 87 1014.1
20260830182037 70 143 0.0 4.0 0.00 0.32 0.32 87 1014.1
20260830181714 70 184 0.0 7.0 0.00 0.32 0.32 87 1014.1
20260830181609 70 162 0.0 7.0 0.00 0.32 0.32 87 1014.0
20260830181504 70 150 0.0 7.0 0.00 0.32 0.32 87 1014.0
20260830181359 70 153 0.0 7.0 0.00 0.32 0.32 88 1014.1
20260830180818 70 151 0.0 6.0 0.00 0.32 0.32 88 1014.2
20260830180714 70 153 0.0 6.0 0.00 0.32 0.32 88 1014.2
20260830180611 70 132 0.0 6.0 0.00 0.32 0.32 88 1014.2
20260830180246 70 188 1.0 7.0 0.00 0.32 0.32 88 1014.2
20260830180144 70 187 1.0 7.0 0.00 0.32 0.32 88 1014.1
20260830180042 70 163 1.0 7.0 0.00 0.32 0.32 88 1014.2
20260830175939 70 155 1.0 7.0 0.00 0.32 0.32 88 1014.1
20260830175836 70 196 1.0 7.0 0.00 0.32 0.32 88 1014.2
20260830175731 70 163 0.0 7.0 0.00 0.32 0.32 89 1014.2
20260830175624 70 154 0.0 7.0 0.00 0.32 0.32 88 1014.2
20260830175257 70 146 0.0 6.0 0.00 0.32 0.32 89 1014.2
20260830175152 70 130 0.0 6.0 0.00 0.32 0.32 89 1014.2
20260830175045 70 184 0.0 6.0 0.00 0.32 0.32 89 1014.2
20260830174943 70 180 0.0 6.0 0.00 0.32 0.32 89 1014.2
20260830174837 70 153 0.0 6.0 0.00 0.32 0.32 89 1014.2
20260830174517 71 162 0.0 6.0 0.00 0.32 0.32 90 1014.2
20260830174411 71 143 0.0 1.0 0.00 0.32 0.32 90 1014.2
20260830174308 70 144 0.0 0.0 0.00 0.32 0.32 90 1014.2
20260830174205 70 144 0.0 0.0 0.00 0.32 0.32 90 1014.3
20260830174058 70 143 0.0 7.0 0.00 0.32 0.32 89 1014.3
20260830173952 70 144 0.0 7.0 0.00 0.32 0.32 89 1014.3
20260830173850 70 169 0.0 7.0 0.00 0.32 0.32 89 1014.5
20260830173742 70 164 0.0 7.0 0.00 0.32 0.32 89 1014.5
20260830173637 70 155 0.0 7.0 0.00 0.32 0.32 90 1014.5
20260830173534 70 209 0.0 7.0 0.00 0.32 0.32 90 1014.5
20260830173429 70 136 0.0 1.0 0.00 0.32 0.32 90 1014.6
20260830173103 70 192 0.0 4.0 0.00 0.32 0.32 90 1014.8
20260830172956 70 167 0.0 4.0 0.00 0.32 0.32 90 1014.8
20260830172630 70 164 0.0 4.0 0.00 0.32 0.32 90 1014.9
20260830172525 70 170 0.0 4.0 0.00 0.32 0.32 90 1014.9
20260830172422 70 171 0.0 4.0 0.00 0.32 0.32 90 1014.9
20260830172315 70 164 0.0 4.0 0.00 0.32 0.32 90 1015.0
20260830172213 70 181 0.0 4.0 0.00 0.32 0.32 90 1015.0
20260830172109 70 182 0.0 4.0 0.00 0.32 0.32 91 1015.0
20260830171748 70 150 0.0 4.0 0.00 0.32 0.32 91 1015.0
20260830171642 70 169 0.0 2.0 0.00 0.32 0.32 91 1015.1
20260830171538 70 146 0.0 2.0 0.00 0.32 0.32 91 1015.0
20260830171434 70 142 0.0 1.0 0.00 0.32 0.32 91 1015.1
20260830171330 70 153 0.0 1.0 0.00 0.32 0.32 91 1015.1
20260830171224 70 176 0.0 4.0 0.00 0.32 0.32 91 1015.2
20260830171121 70 180 0.0 4.0 0.00 0.32 0.32 91 1015.3
20260830171018 70 187 0.0 1.0 0.00 0.32 0.32 91 1015.3
20260830170656 69 180 0.0 3.0 0.00 0.32 0.32 92 1015.4
20260830170552 69 170 0.0 0.0 0.00 0.32 0.32 92 1015.4
20260830170445 69 170 0.0 0.0 0.00 0.32 0.32 91 1015.5
20260830170121 69 146 0.0 0.0 0.00 0.32 0.32 91 1015.4
20260830170017 69 144 0.0 0.0 0.00 0.32 0.32 91 1015.4
20260830165914 69 138 0.0 0.0 0.00 0.32 0.32 91 1015.4
20260830165809 69 157 0.0 0.0 0.00 0.32 0.32 91 1015.4
20260830165703 69 156 0.0 0.0 0.00 0.32 0.32 91 1015.3
20260830165601 69 156 0.0 0.0 0.00 0.32 0.32 92 1015.3
20260830165237 69 156 0.0 0.0 0.00 0.32 0.32 92 1015.4
20260830165132 69 155 0.0 0.0 0.00 0.32 0.32 92 1015.4
20260830165026 68 155 0.0 0.0 0.00 0.32 0.32 92 1015.4
20260830164923 68 155 0.0 0.0 0.00 0.32 0.32 91 1015.5
20260830164556 68 171 0.0 0.0 0.00 0.32 0.32 91 1015.6
20260830164449 68 171 0.0 0.0 0.00 0.32 0.32 91 1015.7
20260830164343 68 171 0.0 0.0 0.00 0.32 0.32 91 1015.7
20260830163802 68 180 0.0 1.0 0.00 0.32 0.32 91 1015.9
20260830163655 68 177 0.0 1.0 0.00 0.32 0.32 91 1015.9